Weather History for PHHI - May, 2012

Change the Weather History Date:

Tuesday, May 22, 2012

  Actual Average Record
Temperature  
Mean Temperature 74 °F -  
Max Temperature 81 °F 77 °F 84 °F (2002)
Min Temperature 66 °F 64 °F 62 °F (2000)
Cooling Degree Days 8    
Growing Degree Days 24 (Base 50)    
Moisture  
Dew Point 61 °F    
Average Humidity 66    
Maximum Humidity 78    
Minimum Humidity 51    
Precipitation  
Precipitation 0.00 in - - ()
Sea Level Pressure  
Sea Level Pressure 30.09 in    
Wind  
Wind Speed 8 mph (East)    
Max Wind Speed 23 mph    
Max Gust Speed 31 mph    
Visibility 10 miles    
Events      
Averages and records for this station are not official NWS values.
T = Trace of Precipitation, MM = Missing Value Source: NWS Daily Summary

Daily Weather History Graph

Daily Weather History Graph

Search for Another Location

Airport or City:

Trip Planner

Search our weather history database for the weather conditions in past years. The results will help you decide how hot, cold, wet, or windy it might be!

Date:

Astronomy

May. 22, 2012 Rise Set
Actual Time 5:51 AM HST 7:06 PM HST
Civil Twilight 5:26 AM HST 7:31 PM HST
Nautical Twilight 4:58 AM HST 8:00 PM HST
Astronomical Twilight 4:28 AM HST 8:29 PM HST
Moon 7:14 AM HST (5/22) 8:51 PM HST (5/22)
Length of Visible Light 14h 04m
Length of Day
13h 15m
Waxing Crescent, 3% of the Moon is Illuminated
May 22
Waxing Crescent
May 28
First Quarter
Jun 4
Full
Jun 11
Last Quarter
Jun 19
New

Hourly Weather History & Observations

Time (HST) Temp. Heat Index Dew Point Humidity Pressure Visibility Wind Dir Wind Speed Gust Speed Precip Events Conditions
12:04 AM 71.6 °F - 62.6 °F 73% 30.10 in 10.0 mi SE 5.8 mph 17.3 mph N/A   Mostly Cloudy
12:48 AM 71.6 °F - 60.8 °F 69% 30.09 in 10.0 mi Calm Calm - N/A   Overcast
12:55 AM 71.1 °F - 61.3 °F 71% 30.09 in 10.0 mi Variable 5.8 mph - N/A   Overcast
1:25 AM 71.6 °F - 60.8 °F 69% 30.08 in 10.0 mi Variable 4.6 mph - N/A   Mostly Cloudy
1:48 AM 71.6 °F - 60.8 °F 69% 30.07 in 10.0 mi Calm Calm - N/A   Mostly Cloudy
1:55 AM 70.2 °F - 60.8 °F 72% 30.08 in 10.0 mi Calm Calm - N/A   Scattered Clouds
2:55 AM 70.0 °F - 61.0 °F 73% 30.07 in 10.0 mi Variable 3.5 mph - N/A   Clear
3:55 AM 68.9 °F - 60.3 °F 74% 30.06 in 10.0 mi Variable 3.5 mph - N/A   Clear
4:55 AM 68.0 °F - 60.3 °F 76% 30.07 in 10.0 mi Calm Calm - N/A   Clear
5:55 AM 66.7 °F - 59.7 °F 78% 30.09 in 10.0 mi Calm Calm - N/A   Clear
6:20 AM 68.0 °F - 59.0 °F 73% 30.10 in 9.0 mi Calm Calm - N/A   Mostly Cloudy
6:55 AM 72.0 °F - 61.9 °F 70% 30.10 in 10.0 mi ESE 4.6 mph - N/A   Mostly Cloudy
6:58 AM 71.6 °F - 62.6 °F 73% 30.10 in 10.0 mi ESE 4.6 mph - N/A   Mostly Cloudy
7:30 AM 73.4 °F - 62.6 °F 69% 30.12 in 10.0 mi Calm Calm - N/A   Mostly Cloudy
7:55 AM 75.4 °F - 62.2 °F 64% 30.12 in 10.0 mi Variable 4.6 mph - N/A   Mostly Cloudy
8:07 AM 75.2 °F - 60.8 °F 61% 30.12 in 10.0 mi East 10.4 mph 17.3 mph N/A   Scattered Clouds
8:55 AM 76.5 °F - 61.0 °F 59% 30.12 in 10.0 mi ENE 17.3 mph 23.0 mph N/A   Partly Cloudy
9:55 AM 78.3 °F - 61.0 °F 55% 30.13 in 10.0 mi East 19.6 mph 25.3 mph N/A   Clear
10:55 AM 79.7 °F - 60.8 °F 52% 30.13 in 10.0 mi East 17.3 mph 25.3 mph N/A   Clear
11:55 AM 81.0 °F 81.8 °F 61.2 °F 51% 30.12 in 10.0 mi ENE 23.0 mph 29.9 mph N/A   Partly Cloudy
12:55 PM 79.9 °F - 61.5 °F 53% 30.11 in 10.0 mi ENE 18.4 mph 24.2 mph N/A   Mostly Cloudy
1:55 PM 80.1 °F 81.1 °F 60.8 °F 52% 30.10 in 10.0 mi East 16.1 mph 27.6 mph N/A   Clear
2:55 PM 79.2 °F - 60.8 °F 53% 30.08 in 10.0 mi East 21.9 mph 28.8 mph N/A   Clear
3:55 PM 79.3 °F - 60.3 °F 52% 30.07 in 10.0 mi ENE 17.3 mph - N/A   Clear
4:55 PM 78.4 °F - 61.5 °F 56% 30.07 in 10.0 mi East 19.6 mph 26.5 mph N/A   Scattered Clouds
5:55 PM 75.6 °F - 61.3 °F 61% 30.07 in 10.0 mi Variable 6.9 mph - N/A   Mostly Cloudy
6:23 PM 73.4 °F - 62.6 °F 69% 30.06 in 10.0 mi SE 8.1 mph - N/A   Overcast
6:55 PM 73.4 °F - 62.1 °F 68% 30.06 in 10.0 mi SSE 5.8 mph - N/A   Overcast
7:55 PM 73.2 °F - 61.7 °F 67% 30.06 in 10.0 mi East 13.8 mph 25.3 mph N/A   Mostly Cloudy
8:55 PM 72.9 °F - 61.9 °F 68% 30.06 in 10.0 mi East 9.2 mph 17.3 mph N/A   Overcast
9:38 PM 73.4 °F - 60.8 °F 65% 30.07 in 10.0 mi East 17.3 mph 31.1 mph N/A   Scattered Clouds
9:55 PM 72.5 °F - 61.5 °F 68% 30.08 in 10.0 mi East 11.5 mph 21.9 mph N/A   Scattered Clouds
10:11 PM 71.6 °F - 60.8 °F 69% 30.08 in 10.0 mi East 13.8 mph 21.9 mph N/A   Mostly Cloudy
10:24 PM 71.6 °F - 60.8 °F 69% 30.08 in 10.0 mi ESE 16.1 mph 28.8 mph N/A   Scattered Clouds
10:33 PM 71.6 °F - 60.8 °F 69% 30.09 in 10.0 mi East 17.3 mph 28.8 mph N/A   Mostly Cloudy
10:48 PM 71.6 °F - 60.8 °F 69% 30.09 in 10.0 mi ESE 13.8 mph 20.7 mph N/A   Scattered Clouds
10:55 PM 72.3 °F - 60.3 °F 66% 30.09 in 10.0 mi East 12.7 mph 27.6 mph N/A   Scattered Clouds
11:55 PM 72.0 °F - 61.0 °F 68% 30.09 in 10.0 mi East 12.7 mph - N/A   Scattered Clouds